This is the latest recevied weather packets stored in our database for station/object EB2EMZ-15. If no packets are shown the sender has not sent any weather packets the latest 10 day(s).
| Time | Temp. | Humidity | Pressure | Rain* | Wind** | Luminosity | Snow |
|---|---|---|---|---|---|---|---|
| 1777887905 | 16.67° C | 78% | 993.6 hPa | 0 mm | - | - | - |
| 1777887608 | 16.67° C | 78% | 993.5 hPa | 0 mm | - | - | - |
| 1777887306 | 16.67° C | 78% | 993.4 hPa | 0 mm | - | - | - |
| 1777887009 | 16.67° C | 78% | 993.5 hPa | 0 mm | - | - | - |
| 1777886707 | 16.67° C | 78% | 993.4 hPa | 0 mm | - | - | - |
| 1777886408 | 16.67° C | 77% | 993.3 hPa | 0 mm | - | - | - |
| 1777886106 | 16.67° C | 77% | 993.4 hPa | 0 mm | - | - | - |
| 1777885808 | 17.22° C | 78% | 993.3 hPa | 0 mm | - | - | - |
| 1777885506 | 17.22° C | 78% | 993.3 hPa | 0 mm | - | - | - |
| 1777885206 | 17.22° C | 80% | 993.2 hPa | 0 mm | - | - | - |
| 1777884906 | 16.67° C | 81% | 993.2 hPa | 0 mm | - | - | - |
| 1777884609 | 16.11° C | 82% | 993.3 hPa | 0 mm | - | - | - |
| 1777884306 | 16.11° C | 84% | 993.3 hPa | 0 mm | - | - | - |
| 1777884008 | 15.56° C | 85% | 993.3 hPa | 0 mm | - | - | - |
| 1777883706 | 14.44° C | 86% | 993.2 hPa | 0 mm | - | - | - |
| 1777883409 | 13.89° C | 86% | 993.2 hPa | 0 mm | - | - | - |
| 1777883105 | 13.89° C | 87% | 993.2 hPa | 0 mm | - | - | - |
| 1777882809 | 13.33° C | 87% | 993.2 hPa | 0 mm | - | - | - |
| 1777882506 | 13.33° C | 87% | 993.2 hPa | 0 mm | - | - | - |
| 1777882209 | 13.33° C | 87% | 993.2 hPa | 0 mm | - | - | - |
| 1777881906 | 13.33° C | 87% | 993.5 hPa | 0 mm | - | - | - |
| 1777881606 | 13.33° C | 86% | 993.3 hPa | 0 mm | - | - | - |
| 1777881305 | 13.33° C | 86% | 993.3 hPa | 0 mm | - | - | - |
| 1777881009 | 13.33° C | 87% | 993.3 hPa | 0 mm | - | - | - |
| 1777880705 | 13.33° C | 87% | 993.3 hPa | 0 mm | - | - | - |
* Rain latest hour (hover to see other rain measurements)
** Current wind speed in m/s (hover to see current wind gust speed)